Volver al catálogo

COSMOS 1275 DEB

ActivoPO
NORAD 39956·DEBRIS·🇷🇺 Russia

Lanzado Jun 4, 1981 desde Plesetsk Cosmodrome

Loading…

Próximos Pases (próximas 24 horas)

TLE

ActualizadoSource: Space-Track

Época: Sep 13, 2026, 14:32 UTC

1 39956U 81053NS  26256.60590022  .00001064  00000-0  10068-2 0  9992
2 39956  83.0174 207.8976 0124398  44.7447 316.3663 13.76837974614478

Sigue COSMOS 1275 DEB en tiempo real con AllMySat

Download on the App Store